Location: Newark
(49.2191°N, 12.6671°E)
Time: 13:31:21
(UTC+00:00)

S-56A Canister/Altair - All Passes

Search period start: 23 January 2020 00:00
Search period end: 02 February 2020 00:00
Orbit: 634 x 2498 km, 38.9° (Epoch: 22 January)

Date Brightness Start Highest point End Pass type
(mag) Time Alt. Az. Time Alt. Az. Time Alt. Az.
23 Jan - 00:27:38 10° SW 00:30:15 15° SSW 00:33:03 10° SSE night (unlit)
23 Jan - 19:48:38 10° SSW 19:52:12 17° SSE 19:55:18 10° ESE visible
23 Jan - 21:51:11 10° SW 21:55:04 24° S 21:58:38 10° SE night (unlit)
23 Jan - 23:54:59 10° WSW 23:57:47 16° SSW 00:00:40 10° SSE night (unlit)
24 Jan - 19:15:55 10° SSW 19:19:40 17° SSE 19:22:51 10° ESE visible
24 Jan - 21:18:27 10° SW 21:22:35 24° S 21:26:14 10° SE night (unlit)
24 Jan - 23:22:17 10° WSW 23:25:18 18° SSW 23:28:20 10° SSE night (unlit)
25 Jan - 18:43:09 10° SSW 18:47:05 16° SSE 18:50:23 10° ESE visible
25 Jan - 20:45:38 10° SW 20:50:05 25° S 20:53:51 10° ESE visible
25 Jan - 22:49:32 10° WSW 22:52:50 19° SSW 22:56:01 10° SSE night (unlit)
26 Jan - 18:10:21 10° SSW 18:14:29 16° SSE 18:17:56 10° ESE visible
26 Jan - 20:12:44 10° SW 20:17:35 25° S 20:21:31 10° ESE visible
26 Jan - 22:16:43 10° WSW 22:20:23 21° SSW 22:23:43 10° SE night (unlit)
27 Jan - 17:37:30 10° SSW 17:41:50 16° SSE 17:45:26 10° ESE visible
27 Jan - 19:39:47 10° SW 19:45:02 26° S 19:49:11 10° ESE visible
27 Jan - 21:43:51 10° WSW 21:47:54 23° SSW 21:51:28 10° SE night (unlit)
28 Jan - 17:04:40 10° S 17:09:10 16° SSE 17:12:54 10° ESE visible
28 Jan - 19:06:45 10° SW 19:12:28 27° S 19:16:52 10° ESE visible
28 Jan - 21:10:54 10° WSW 21:15:26 25° S 21:19:13 10° SE visible
28 Jan - 23:16:58 10° SW 23:17:55 11° SSW 23:18:51 10° SSW night (unlit)
29 Jan - 16:31:49 10° S 16:36:27 15° SSE 16:40:19 10° ESE visible
29 Jan - 18:33:39 10° SW 18:39:52 27° S 18:44:32 10° ESE visible
29 Jan - 20:37:53 10° WSW 20:42:56 27° S 20:46:58 10° SE visible
29 Jan - 22:43:21 10° SW 22:45:27 13° SSW 22:47:27 10° S night (unlit)
30 Jan - 15:59:00 10° S 16:03:43 15° SSE 16:07:40 10° ESE daylight
30 Jan - 18:00:30 10° SW 18:07:13 28° SSE 18:12:11 10° ESE visible
30 Jan - 20:04:48 10° WSW 20:10:24 29° S 20:14:44 10° SE visible
30 Jan - 22:10:05 10° WSW 22:13:00 15° SSW 22:15:39 10° S night (unlit)
31 Jan - 15:26:15 10° S 15:30:56 14° SSE 15:34:54 10° ESE daylight
31 Jan - 17:27:19 10° SW 17:34:32 28° SSE 17:39:49 10° ESE visible
31 Jan - 19:31:38 10° WSW 19:37:52 32° S 19:42:29 10° ESE visible
31 Jan - 21:36:51 10° WSW 21:40:33 18° SSW 21:43:44 10° SSE visible
01 Feb - 14:53:35 10° S 14:58:06 14° SSE 15:02:01 10° ESE daylight
01 Feb - 16:54:05 10° SW 17:01:47 28° SSE 17:07:26 10° ESE visible
01 Feb - 18:58:23 10° WSW 19:05:15 34° S 19:10:14 10° ESE visible
01 Feb - 21:03:39 10° WSW 21:08:05 21° SSW 21:11:44 10° SSE visible
